Sturgis, MI

3:21 PM EST on December 05, 2019 (GMT -0500)
Kirsch Municipal

Weather History for KIRS - October, 2019

Change the Weather History Date:

Thursday, October 3, 2019

  Actual Average (WUND) Record (WUND)
Temperature  
Mean Temperature 62 °F -  
Max Temperature 67 °F - - (-1)
Min Temperature 56 °F - - (-1)
Degree Days  
Heating Degree Days 4    
Growing Degree Days 12 (Base 50)    
Moisture  
Dew Point 55 °F    
Average Humidity 79    
Maximum Humidity 89    
Minimum Humidity 59    
Precipitation  
Precipitation 0.89 in - - ()
Sea Level Pressure  
Sea Level Pressure 30.01 in    
Wind  
Wind Speed 7 mph ()    
Max Wind Speed 15 mph    
Max Gust Speed 22 mph    
Visibility 8.0 miles    
Events Fog , Rain    
Averages and records for this station are not official NWS values.
T = Trace of Precipitation, MM = Missing Value Source: Averaged Metar Reports

Daily Weather History Graph

Daily Weather History Graph

Search for Another Location

Airport or City:

Astronomy

Oct. 03, 2019 Rise Set
Actual Time 7:40 AM EDT 7:20 PM EDT
Civil Twilight 7:12 AM EDT 7:48 PM EDT
Nautical Twilight 6:40 AM EDT 8:20 PM EDT
Astronomical Twilight 6:07 AM EDT 8:52 PM EDT
Moon 1:15 PM EDT (10/3) 10:54 PM EDT (10/3)
Length of Visible Light 12h 35m
Length of Day
11h 39m
Waxing Crescent, 29% of the Moon is Illuminated
Oct 3
Waxing Crescent
Oct 5
First Quarter
Oct 13
Full
Oct 21
Last Quarter
Oct 27
New

Hourly Weather History & Observations

Time (EDT) Temp. Dew Point Humidity Pressure Visibility Wind Dir Wind Speed Gust Speed Precip Events Conditions
12:00 AM 60.3 °F 56.8 °F 88% 29.97 in 10.0 mi East 5.8 mph - N/A   Overcast
12:18 AM 60.3 °F 56.8 °F 88% 29.97 in 10.0 mi East 6.9 mph - N/A   Overcast
12:36 AM 60.3 °F 56.7 °F 88% 29.95 in 7.0 mi ESE 10.4 mph - N/A Rain Rain
12:55 AM 59.9 °F 56.5 °F 88% 29.95 in 10.0 mi ESE 9.2 mph - N/A   Overcast
12:56 AM 59.9 °F 56.5 °F 88% 29.95 in 10.0 mi ESE 11.5 mph - N/A   Overcast
1:15 AM 59.9 °F 56.3 °F 88% 29.95 in 10.0 mi ESE 9.2 mph - 0.01 in   Overcast
1:16 AM 59.9 °F 56.3 °F 88% 29.95 in 10.0 mi East 9.2 mph - 0.01 in   Overcast
1:39 AM 59.5 °F 56.3 °F 89% 29.94 in 10.0 mi ESE 9.2 mph - 0.01 in   Overcast
1:57 AM 59.2 °F 55.8 °F 88% 29.92 in 7.0 mi ESE 9.2 mph - 0.01 in Rain Rain
2:15 AM 59.0 °F 55.6 °F 88% 29.95 in 10.0 mi East 4.6 mph - 0.01 in Rain Rain
2:35 AM 59.0 °F 55.6 °F 88% 29.98 in 5.0 mi NNE 3.5 mph - 0.03 in Rain Rain
2:36 AM 59.0 °F 55.6 °F 88% 29.98 in 5.0 mi North 4.6 mph - 0.03 in Rain Rain
2:55 AM 58.6 °F 55.4 °F 89% 29.99 in 1.2 mi Calm Calm - 0.42 in Rain Heavy Rain
3:18 AM 58.3 °F 54.9 °F 88% 29.97 in 3.0 mi ESE 4.6 mph - 0.23 in Rain Heavy Rain
3:36 AM 58.5 °F 55.0 °F 88% 29.96 in 3.0 mi SE 8.1 mph - 0.41 in Rain Light Rain
3:55 AM 58.5 °F 55.0 °F 88% 29.93 in 10.0 mi SE 6.9 mph - 0.41 in   Overcast
3:56 AM 58.5 °F 55.2 °F 89% 29.93 in 10.0 mi ESE 6.9 mph - 0.41 in   Overcast
4:15 AM 59.0 °F 55.6 °F 88% 29.92 in 10.0 mi SE 8.1 mph - N/A   Overcast
4:16 AM 59.0 °F 55.6 °F 88% 29.92 in 10.0 mi SE 8.1 mph - N/A   Overcast
4:38 AM 59.4 °F 55.9 °F 88% 29.89 in 10.0 mi ESE 8.1 mph - N/A Rain Light Rain
4:57 AM 59.9 °F 56.5 °F 88% 29.93 in 10.0 mi South 5.8 mph - N/A   Mostly Cloudy
5:15 AM 60.3 °F 56.8 °F 88% 29.93 in 7.0 mi SSE 3.5 mph - 0.01 in Rain Light Rain
5:35 AM 60.1 °F 56.7 °F 88% 29.92 in 7.0 mi SE 4.6 mph - 0.05 in Rain Rain
5:36 AM 60.1 °F 56.7 °F 88% 29.92 in 10.0 mi SE 4.6 mph - 0.05 in Rain Rain
5:55 AM 60.1 °F 56.7 °F 88% 29.93 in 10.0 mi SSE 4.6 mph - 0.05 in   Overcast
6:00 AM 60.1 °F 56.7 °F 88% 29.93 in 10.0 mi SSE 3.5 mph - N/A   Overcast
6:18 AM 60.1 °F 56.7 °F 88% 29.92 in 10.0 mi SSE 5.8 mph - N/A   Overcast
6:36 AM 60.3 °F 56.8 °F 88% 29.91 in 10.0 mi SSE 6.9 mph - N/A   Light Drizzle
6:55 AM 60.3 °F 56.8 °F 88% 29.89 in 7.0 mi ESE 5.8 mph - N/A   Overcast
7:15 AM 60.8 °F 57.2 °F 88% 29.92 in 7.0 mi SSE 3.5 mph - N/A   Overcast
7:16 AM 60.8 °F 57.2 °F 88% 29.92 in 7.0 mi SSE 3.5 mph - N/A   Overcast
7:39 AM 60.8 °F 57.4 °F 88% 29.92 in 5.0 mi Calm Calm - N/A   Overcast
7:57 AM 61.0 °F 57.6 °F 88% 29.92 in 5.0 mi Calm Calm - N/A   Overcast
8:15 AM 61.2 °F 57.7 °F 88% 29.92 in 3.0 mi South 3.5 mph - N/A   Overcast
8:16 AM 61.2 °F 57.7 °F 88% 29.92 in 3.0 mi South 3.5 mph - N/A   Overcast
8:35 AM 61.7 °F 58.1 °F 88% 29.93 in 2.0 mi Calm Calm - N/A   Overcast
8:55 AM 62.2 °F 58.8 °F 89% 29.93 in 1.0 mi SSW 4.6 mph - N/A   Overcast
9:00 AM 62.2 °F 59.0 °F 89% 29.93 in 1.0 mi SSW 3.5 mph - N/A   Overcast
9:18 AM 62.6 °F 59.2 °F 89% 29.93 in 0.5 mi SW 4.6 mph - N/A Fog Fog
9:36 AM 63.5 °F 59.9 °F 88% 29.93 in 0.8 mi SW 3.5 mph - N/A   Overcast
9:55 AM 64.4 °F 60.8 °F 88% 29.93 in 1.5 mi WSW 4.6 mph - N/A   Overcast
9:56 AM 64.4 °F 61.0 °F 89% 29.93 in 1.5 mi WSW 4.6 mph - N/A   Overcast
10:15 AM 65.7 °F 62.2 °F 89% 29.94 in 2.5 mi WSW 8.1 mph - N/A   Overcast
10:39 AM 66.2 °F 62.8 °F 89% 29.94 in 2.0 mi WSW 6.9 mph - N/A   Overcast
10:57 AM 67.1 °F 63.5 °F 88% 29.94 in 2.5 mi West 8.1 mph 16.1 mph N/A   Overcast
11:16 AM 67.1 °F 63.5 °F 88% 29.95 in 2.5 mi West 8.1 mph - N/A   Overcast
11:35 AM 67.1 °F 63.7 °F 89% 29.96 in 3.0 mi WNW 11.5 mph 17.3 mph N/A   Overcast
11:36 AM 67.1 °F 63.7 °F 89% 29.96 in 4.0 mi West 10.4 mph 17.3 mph N/A   Overcast
11:55 AM 67.1 °F 63.1 °F 87% 29.97 in 7.0 mi WNW 15.0 mph 20.7 mph N/A   Overcast
12:00 PM 67.1 °F 62.8 °F 86% 29.97 in 10.0 mi West 12.7 mph 20.7 mph N/A   Overcast
12:18 PM 65.8 °F 61.9 °F 87% 29.98 in 10.0 mi WNW 11.5 mph 20.7 mph N/A   Overcast
12:36 PM 65.3 °F 61.2 °F 86% 29.99 in 10.0 mi West 11.5 mph 17.3 mph N/A   Overcast
12:55 PM 64.6 °F 60.1 °F 85% 29.99 in 10.0 mi WNW 8.1 mph 20.7 mph N/A   Overcast
1:15 PM 64.6 °F 58.8 °F 82% 30.01 in 10.0 mi NW 11.5 mph 20.7 mph N/A   Overcast
1:16 PM 64.6 °F 58.8 °F 82% 30.01 in 10.0 mi NW 11.5 mph 20.7 mph N/A   Overcast
1:39 PM 64.2 °F 58.1 °F 80% 30.02 in 10.0 mi WNW 8.1 mph 17.3 mph N/A   Overcast
1:57 PM 63.9 °F 57.4 °F 79% 30.02 in 10.0 mi NW 11.5 mph 20.7 mph N/A   Overcast
2:15 PM 65.7 °F 57.0 °F 74% 30.02 in 10.0 mi West 15.0 mph 20.7 mph N/A   Overcast
2:35 PM 65.7 °F 57.0 °F 74% 30.03 in 10.0 mi WNW 8.1 mph - N/A   Overcast
2:36 PM 65.7 °F 57.0 °F 74% 30.03 in 10.0 mi West 8.1 mph - N/A   Overcast
2:55 PM 67.5 °F 56.3 °F 67% 30.02 in 10.0 mi WNW 11.5 mph 17.3 mph N/A   Overcast
3:00 PM 67.3 °F 55.8 °F 66% 30.02 in 10.0 mi NW 9.2 mph 17.3 mph N/A   Mostly Cloudy
3:18 PM 66.2 °F 54.1 °F 65% 30.03 in 10.0 mi NW 13.8 mph 20.7 mph N/A   Scattered Clouds
3:36 PM 67.8 °F 53.4 °F 60% 30.03 in 10.0 mi NW 15.0 mph 21.9 mph N/A   Mostly Cloudy
3:55 PM 66.4 °F 53.1 °F 62% 30.03 in 10.0 mi NW 10.4 mph 19.6 mph N/A   Scattered Clouds
3:56 PM 66.6 °F 53.1 °F 62% 30.03 in 10.0 mi NW 10.4 mph 16.1 mph N/A   Scattered Clouds
4:15 PM 67.1 °F 52.9 °F 60% 30.04 in 10.0 mi WNW 10.4 mph 17.3 mph N/A   Scattered Clouds
4:16 PM 67.5 °F 53.1 °F 60% 30.04 in 10.0 mi WNW 11.5 mph 18.4 mph N/A   Scattered Clouds
4:57 PM 66.6 °F 51.6 °F 59% 30.06 in 10.0 mi NW 15.0 mph 21.9 mph N/A   Mostly Cloudy
5:15 PM 65.3 °F 51.6 °F 61% 30.06 in 10.0 mi NW 12.7 mph 17.3 mph N/A   Mostly Cloudy
5:16 PM 65.3 °F 51.4 °F 61% 30.06 in 10.0 mi NW 12.7 mph 17.3 mph N/A   Mostly Cloudy
5:35 PM 63.9 °F 51.1 °F 63% 30.07 in 10.0 mi NNW 10.4 mph - N/A   Mostly Cloudy
5:36 PM 63.7 °F 51.3 °F 64% 30.07 in 10.0 mi NNW 11.5 mph - N/A   Mostly Cloudy
5:55 PM 63.1 °F 50.2 °F 63% 30.08 in 10.0 mi NW 10.4 mph 18.4 mph N/A   Mostly Cloudy
6:18 PM 63.0 °F 50.2 °F 63% 30.09 in 10.0 mi WNW 9.2 mph 17.3 mph N/A   Mostly Cloudy
6:36 PM 62.4 °F 50.4 °F 65% 30.10 in 10.0 mi NW 6.9 mph - N/A   Overcast
6:55 PM 61.5 °F 50.4 °F 67% 30.10 in 10.0 mi NNW 10.4 mph - N/A   Overcast
6:56 PM 61.5 °F 50.4 °F 67% 30.10 in 10.0 mi NNW 12.7 mph - N/A   Overcast
7:15 PM 60.4 °F 49.5 °F 67% 30.11 in 10.0 mi NW 9.2 mph 19.6 mph N/A   Overcast
7:39 PM 59.7 °F 49.3 °F 68% 30.12 in 10.0 mi NW 10.4 mph 16.1 mph N/A   Overcast
7:57 PM 59.0 °F 48.9 °F 69% 30.13 in 10.0 mi NW 6.9 mph - N/A   Scattered Clouds
8:15 PM 59.0 °F 49.1 °F 70% 30.14 in 10.0 mi NW 6.9 mph - N/A   Mostly Cloudy
8:16 PM 59.0 °F 49.1 °F 70% 30.14 in 10.0 mi NNW 6.9 mph - N/A   Mostly Cloudy
8:35 PM 59.0 °F 49.3 °F 70% 30.14 in 10.0 mi WNW 6.9 mph - N/A   Overcast
8:55 PM 59.0 °F 49.5 °F 71% 30.15 in 10.0 mi NNW 5.8 mph - N/A   Overcast
9:18 PM 58.5 °F 47.8 °F 68% 30.16 in 10.0 mi North 11.5 mph - N/A   Overcast
9:36 PM 58.1 °F 46.9 °F 66% 30.16 in 10.0 mi NNW 11.5 mph - N/A   Overcast
9:55 PM 57.6 °F 46.4 °F 66% 30.17 in 10.0 mi North 8.1 mph - N/A   Overcast
10:15 PM 57.4 °F 46.2 °F 66% 30.17 in 10.0 mi NNW 6.9 mph - N/A   Overcast
10:39 PM 57.2 °F 46.4 °F 67% 30.17 in 10.0 mi NNW 4.6 mph - N/A   Overcast
10:57 PM 57.2 °F 46.2 °F 67% 30.18 in 10.0 mi NNW 6.9 mph - N/A   Overcast
11:15 PM 56.8 °F 46.4 °F 68% 30.18 in 10.0 mi NNW 5.8 mph - N/A   Overcast
11:35 PM 56.8 °F 46.2 °F 68% 30.19 in 10.0 mi NNW 5.8 mph - N/A   Overcast
11:55 PM 56.8 °F 46.2 °F 68% 30.19 in 10.0 mi NW 4.6 mph - N/A   Overcast